Location: Franzen
(48.6167°N, 15.3833°E)
Time: 10:12:54
(UTC+00:00)

Cosmos 1486 Rocket - Pass Details

Date: 22 April 2021
Orbit: 758 x 784 km, 74.1° (Epoch: 16 May)

Event Time Altitude Azimuth Distance (km) Brightness Sun altitude
Exits shadow 22:57:27 65° 316° (NW) 858 4.3 -28.9°
Drops below altitude 10° 23:02:29 10° 19° (NNE) 2,351 7.4 -28.8°
Sets 23:04:55 0° 22° (NNE) 3,285 8.3 -28.8°
